Theta_e
316 317 317 316 316 316 316 316 316 316 316 315 314 314 314 313 312 310 309 308 310 315 318 318 322 323 327 328 328 327 324 329 330 330 329 329 329 330 332 333 333 332 331
317 317 316 316 317 317 317 315 316 316 316 315 314 314 313 313 313 312 311 311 310 308 313 316 316 319 323 328 328 328 328 329 328 328 328 327 324 327 329 333 333 331 329
316 316 316 318 318 318 317 317 316 316 316 315 314 314 313 313 312 312 311 311 311 309 309 312 315 315 318 320 327 330 327 326 325 324 324 325 324 325 330 330 331 327 328
315 315 316 317 317 318 317 317 316 316 315 314 314 314 313 312 312 312 311 311 311 310 309 311 313 314 315 314 318 325 328 326 324 322 322 324 323 326 330 330 329 327 329
313 313 313 313 313 312 312 313 314 314 314 314 313 313 312 312 312 312 311 311 311 310 309 310 314 314 315 315 317 319 322 323 324 322 323 324 324 327 330 330 326 326 324
310 310 310 309 309 309 309 310 310 311 311 311 312 313 313 312 311 311 311 311 310 309 309 310 315 316 316 316 315 316 316 318 323 322 324 324 325 327 328 327 323 324 323
308 309 309 309 309 308 308 308 308 309 311 311 312 312 312 312 311 310 310 310 308 307 308 311 316 316 316 318 318 317 317 321 323 323 323 324 326 326 328 326 323 319 312
308 308 307 306 305 305 305 305 305 306 306 306 308 310 311 310 310 310 310 309 308 307 309 311 316 317 318 319 319 321 317 324 323 324 326 325 320 325 325 318 311 309 308
305 303 303 305 305 304 303 303 303 303 305 306 306 308 309 309 309 309 309 308 307 308 310 314 317 317 320 320 322 320 321 325 325 326 324 323 322 313 309 309 311 312 311
303 304 303 303 302 301 302 302 301 301 301 302 304 305 305 305 306 306 306 308 308 308 311 317 317 317 321 321 319 322 324 324 324 321 315 311 310 311 312 313 314 313 315
303 303 302 301 300 299 299 299 299 299 299 301 303 303 304 305 306 307 308 308 307 309 309 315 316 316 321 321 323 323 323 321 315 311 311 313 314 315 315 314 315 316 317
299 299 300 299 298 298 297 297 297 298 299 300 301 302 303 305 306 306 307 306 307 308 310 316 317 320 317 320 320 319 314 312 313 314 314 315 316 316 315 316 316 318 318
298 299 298 298 298 297 297 297 297 297 297 300 303 303 304 306 306 307 306 306 308 307 312 317 317 318 317 317 314 313 313 314 315 315 317 317 317 316 317 317 318 318 318
297 297 298 298 299 298 298 298 296 297 297 300 301 304 306 306 307 306 305 306 307 309 314 317 318 316 313 315 315 316 316 317 317 317 318 318 317 317 317 318 318 319 318
296 299 299 300 300 300 297 297 296 297 298 300 302 304 305 306 305 305 305 307 309 311 315 317 318 315 316 318 319 320 319 319 318 318 318 317 316 317 317 318 318 319 319
298 300 300 299 299 299 298 297 297 297 298 300 301 304 305 305 306 306 309 311 308 312 310 318 318 317 319 318 319 319 319 319 319 319 319 318 317 317 316 317 318 318 321
298 300 300 300 300 300 299 296 296 297 299 300 301 302 305 305 306 306 307 309 308 308 313 318 318 318 318 318 318 318 319 319 320 320 319 317 317 317 315 318 319 318 319
302 303 302 304 304 301 299 297 296 296 299 301 301 302 303 304 304 305 306 307 307 310 316 318 317 318 318 318 319 319 319 319 319 318 319 317 317 316 317 318 319 318 319
305 306 305 305 304 301 298 297 296 296 299 300 302 302 302 303 302 304 304 305 309 311 316 318 318 318 317 318 319 319 319 318 318 319 318 317 316 315 316 318 319 319 319
307 306 304 304 303 301 299 297 296 296 299 300 301 301 301 301 302 303 304 304 309 310 315 318 319 317 316 317 318 318 318 318 319 318 316 316 314 315 315 318 319 319 319
306 305 303 302 302 300 298 296 295 297 299 300 301 301 302 303 302 302 303 303 306 309 315 317 318 319 318 317 318 318 318 318 317 316 316 312 316 317 317 318 319 319 321
305 303 302 301 299 298 297 295 296 297 298 300 301 301 303 304 304 303 302 303 307 310 314 316 317 317 317 317 318 317 316 316 316 316 314 315 315 315 316 317 319 320 321
305 305 303 301 299 298 296 296 296 297 297 301 301 303 304 304 304 304 303 304 308 309 313 316 317 316 316 316 316 316 315 312 311 313 312 314 314 314 316 318 320 320 321
304 304 303 302 300 299 297 296 296 296 297 300 302 303 303 304 305 304 303 305 309 310 312 316 316 316 315 315 316 315 312 312 312 311 311 310 313 315 315 316 322 324 323
301 302 303 303 302 300 299 298 297 298 298 299 301 302 304 304 304 305 305 306 308 310 310 314 316 315 314 315 314 313 313 313 312 312 312 311 309 311 314 314 322 321 322
300 300 301 302 302 302 301 300 299 299 300 300 300 302 303 304 303 305 306 306 308 310 311 311 312 313 313 313 313 313 313 312 312 312 311 310 309 311 312 313 323 322 321
Wind_Speed
21 23 22 23 23 24 25 25 26 26 28 27 25 24 25 25 24 24 22 20 20 23 23 24 25 25 29 29 28 29 35 28 33 28 26 30 22 29 26 31 30 27 26
27 26 26 26 27 27 27 28 29 31 31 31 30 29 28 28 29 28 28 27 26 24 25 24 21 21 22 24 25 27 28 24 30 34 31 47 37 29 28 32 29 27 28
22 26 29 32 33 33 33 34 34 35 37 37 34 33 31 31 31 30 29 28 29 26 26 29 26 24 24 23 26 30 26 25 19 17 31 34 50 43 26 30 29 26 27
12 14 17 22 29 34 37 38 38 39 41 39 37 35 34 33 33 32 28 27 32 32 34 31 32 31 28 30 32 34 36 37 38 39 38 37 48 37 29 32 29 26 25
21 24 26 28 30 32 34 34 34 33 36 38 38 37 37 36 37 34 28 29 33 35 37 37 35 35 36 33 34 40 39 41 39 39 34 39 41 31 33 29 27 26 22
32 33 34 35 36 37 38 38 38 39 40 41 41 41 41 39 37 34 30 31 33 40 41 38 39 39 41 43 42 43 44 47 50 42 38 44 36 31 29 26 20 19 19
32 33 34 36 39 41 42 42 41 39 38 39 39 39 41 38 33 32 30 32 39 42 40 40 41 42 44 48 46 46 47 47 49 38 41 40 31 26 25 24 20 19 19
37 41 45 49 54 55 54 51 48 47 47 47 45 39 39 40 39 37 35 38 43 37 36 41 41 44 51 57 59 56 54 47 41 32 32 26 26 23 21 19 18 16 17
50 54 54 51 47 43 43 42 42 41 36 32 34 37 42 42 39 39 39 42 45 36 35 37 37 39 38 43 45 49 44 43 33 29 21 21 22 19 18 15 13 14 13
52 47 41 39 39 37 36 35 32 31 34 35 35 38 39 41 40 37 33 30 31 32 30 31 25 23 17 6 31 39 44 31 31 24 24 25 22 17 12 10 8 9 9
39 38 38 37 36 34 34 29 28 30 31 30 28 32 36 31 28 23 24 27 26 26 29 25 15 13 9 18 24 28 33 31 31 31 28 23 17 11 8 7 8 6 6
37 38 36 34 32 30 29 29 27 27 27 31 28 29 27 25 27 24 23 24 22 22 26 23 17 18 28 30 23 30 34 34 32 27 22 17 12 8 7 7 8 4 6
36 35 33 31 30 28 27 27 27 24 24 21 23 24 25 21 18 18 21 19 19 23 24 21 13 16 21 22 24 29 30 27 25 22 18 12 7 5 6 4 5 7 10
33 32 31 30 28 25 24 24 24 22 21 22 22 21 18 14 14 17 16 14 13 24 20 19 11 23 25 25 28 26 23 21 20 17 12 6 7 7 4 4 4 6 12
29 30 30 28 27 26 26 25 21 21 21 20 20 18 15 13 13 13 15 14 13 22 8 17 17 33 32 30 27 23 21 19 17 13 8 3 5 3 2 4 5 9 9
29 29 29 29 28 27 27 26 21 20 19 22 18 15 19 15 11 7 8 13 10 26 18 20 22 33 32 29 24 21 20 18 15 11 7 3 5 4 4 4 5 8 6
26 27 28 27 26 25 24 21 21 14 16 16 20 13 12 15 15 11 7 1 16 23 22 24 28 28 30 29 26 21 19 16 12 10 8 6 6 5 5 5 4 6 6
23 25 25 24 27 25 21 18 17 16 13 9 16 17 19 15 14 13 12 5 12 19 23 26 27 26 26 25 23 18 15 14 12 9 8 8 6 5 5 6 6 5 4
22 21 21 24 24 22 18 16 14 13 11 11 10 15 17 20 21 19 15 12 9 11 17 31 30 27 25 24 21 19 15 10 7 9 9 8 8 9 7 7 7 6 5
18 18 25 24 22 17 13 12 11 12 11 9 13 14 15 20 23 24 22 16 8 4 12 17 33 31 26 25 20 17 13 12 12 10 9 10 10 10 9 8 8 8 7
15 18 25 21 15 10 7 5 6 8 11 8 8 10 11 15 21 21 22 17 12 7 10 13 19 25 26 23 20 17 14 13 14 11 12 8 5 5 6 7 8 8 5
12 13 21 22 17 11 6 2 7 6 10 11 8 9 11 10 10 20 22 18 13 9 12 14 17 22 23 22 19 17 15 14 13 14 9 6 4 5 6 8 9 9 8
10 11 14 20 22 13 7 4 4 6 11 12 8 10 11 9 6 11 20 18 12 9 11 16 24 24 22 19 17 13 10 9 9 7 3 4 4 5 8 10 10 10 10
10 11 11 13 13 18 11 6 4 6 8 17 9 8 10 9 5 5 15 19 14 12 13 18 21 23 23 20 15 10 10 9 7 2 6 7 8 9 10 14 12 11 17
13 12 12 11 13 12 10 11 8 8 7 11 11 8 10 10 10 7 12 15 15 15 15 15 21 23 19 17 15 11 11 9 9 9 15 16 14 13 13 16 11 8 7
16 15 13 13 11 11 11 10 8 7 8 5 8 8 8 8 10 11 12 15 15 17 18 17 20 20 21 20 17 15 14 14 14 17 20 20 14 12 12 12 6 5 8
Wind_Direction
278 276 273 283 278 273 274 279 283 280 282 288 291 299 303 308 314 317 321 317 305 291 286 290 289 295 282 275 270 257 252 253 242 243 247 252 251 243 246 245 247 250 254
257 261 275 281 271 267 272 285 288 280 279 281 280 286 287 294 302 304 309 311 315 306 292 285 288 287 285 271 272 263 240 236 251 250 262 253 242 254 254 252 247 254 258
261 263 262 260 259 264 272 277 280 280 276 277 279 280 279 283 290 294 297 300 304 309 302 285 281 283 280 273 264 249 230 241 232 242 261 232 224 238 263 252 251 254 257
265 272 272 267 267 267 269 271 271 270 270 273 275 277 277 278 282 286 287 290 298 297 304 289 274 269 268 273 260 249 242 250 266 264 237 228 227 243 253 246 249 258 255
296 291 289 288 286 285 284 282 280 278 273 271 271 272 272 271 276 279 277 281 291 294 298 286 277 266 262 275 262 253 247 253 257 255 225 216 220 249 246 242 252 251 250
303 300 297 295 293 290 287 285 281 278 276 277 277 273 270 265 268 267 269 281 285 290 290 281 281 269 260 266 258 259 245 247 243 228 208 229 235 243 243 245 236 237 248
303 301 299 297 294 291 290 288 284 281 277 271 267 267 266 263 256 260 268 274 287 291 281 281 279 273 272 269 265 251 246 239 233 224 224 231 237 236 239 232 239 252 259
302 300 299 298 298 297 294 291 288 284 280 273 267 264 260 258 259 261 268 272 285 284 276 280 278 277 277 266 258 243 234 223 222 226 236 226 235 239 218 230 240 246 253
304 304 303 300 298 295 292 289 284 279 276 277 273 267 261 262 263 267 268 275 276 271 277 282 279 286 286 276 232 210 203 200 209 223 207 204 206 202 201 209 229 250 257
305 302 300 298 297 296 294 295 293 285 279 273 270 269 266 269 270 269 265 254 260 266 280 283 286 315 267 197 181 192 187 189 174 166 186 180 174 177 190 212 238 247 262
304 302 300 298 297 293 294 292 287 286 283 276 280 266 264 267 266 264 256 260 259 273 276 279 263 4 198 197 177 170 166 159 168 171 166 164 161 173 206 226 226 230 245
304 301 300 298 298 297 292 294 290 286 273 271 274 276 265 265 260 254 258 256 258 271 267 267 257 221 146 171 166 159 156 156 158 159 161 159 162 186 215 208 205 245 308
302 300 300 302 302 299 296 297 293 287 274 272 277 272 265 270 247 247 254 253 252 264 271 241 260 191 159 160 155 152 152 155 155 153 148 151 152 185 180 191 242 274 316
302 303 305 304 305 300 295 294 290 280 266 265 268 275 263 257 252 256 245 249 254 242 268 233 224 182 163 158 158 157 157 157 154 149 146 156 161 172 188 243 276 269 311
306 306 306 306 304 302 300 295 287 273 259 259 264 263 263 243 256 247 244 243 236 236 271 234 187 174 172 172 168 169 167 169 168 169 162 148 177 193 255 267 269 288 298
308 310 310 306 303 302 300 296 287 270 257 246 244 259 240 242 237 241 245 218 227 217 281 206 180 181 179 175 177 179 180 183 184 188 196 249 230 258 285 267 260 328 334
308 311 312 309 305 304 300 290 282 279 248 242 238 219 190 197 202 213 261 169 222 245 235 188 184 182 184 181 180 183 187 190 196 207 199 231 235 261 296 249 265 331 359
321 325 325 316 312 305 296 286 268 261 265 256 226 201 205 213 216 230 251 292 243 257 191 183 182 180 191 188 184 180 173 168 179 204 228 218 239 271 266 236 261 288 305
336 340 339 331 320 314 297 280 258 245 229 238 213 204 212 217 214 232 248 253 238 214 177 178 178 175 182 188 186 184 183 194 231 216 215 218 248 265 231 241 266 282 287
345 351 347 338 333 319 302 276 245 227 228 211 207 212 215 218 219 219 225 235 224 169 180 180 187 192 191 194 202 202 214 223 216 213 213 246 250 240 234 242 267 300 299
357 4 359 345 349 347 325 276 243 198 205 201 214 212 205 219 215 217 222 221 224 190 167 161 176 186 190 199 210 219 210 194 194 212 233 241 229 204 221 256 270 306 292
6 15 13 13 8 8 7 130 169 187 201 172 154 195 191 189 203 215 223 222 208 166 156 158 157 155 166 178 175 172 176 204 222 238 227 183 208 261 276 281 283 295 264
15 14 21 25 24 26 50 99 157 173 188 177 150 166 173 188 203 221 216 208 193 164 158 157 158 155 155 159 168 181 200 214 179 171 215 253 262 286 298 305 300 275 265
23 29 30 36 29 31 45 62 113 138 162 184 162 148 182 180 167 182 197 198 185 164 165 169 170 168 168 172 184 200 185 165 163 94 345 333 307 299 311 319 309 281 263
35 38 41 43 49 46 36 55 100 110 124 176 175 158 168 180 187 175 165 187 185 173 167 167 174 174 179 189 194 206 208 215 228 274 311 312 306 294 310 324 314 303 306
42 46 53 59 61 67 63 72 105 93 94 130 175 173 162 174 185 195 171 182 187 182 183 166 160 169 181 190 198 206 220 234 256 288 304 308 297 296 307 319 340 256 282